Regional Weather Roundup
Issued by NWS

Home | Current Version | Previous Version | Text Only | Print | Product List | Glossary On
Versions: 1 2 3 4 5 6 7 8 9 10 11 12 13 14 15 16 17 18 19 20 21 22 23 24 25 26 27 28 29 30 31 32 33 34 35 36 37 38 39 40 41 42 43 44 45 46 47 48 49 50
000
ASUS43 KIND 110709
RWRIN

WEATHER ROUNDUP FOR INDIANA
NATIONAL WEATHER SERVICE INDIANAPOLIS IN
200 AM EST SUN DEC 11 2016

NOTE: "FAIR" INDICATES FEW OR NO CLOUDS BELOW 12,000 FEET WITH NO
SIGNIFICANT WEATHER AND/OR OBSTRUCTIONS TO VISIBILITY.

* - STATION DOES NOT REPORT WEATHER SUCH AS PRECIPITATION OR FOG.

+ - STATION NOT QUALITY CONTROLLED BY THE NATIONAL WEATHER SERVICE.
    USE DATA WITH CAUTION...ESPECIALLY DEWPOINT AND RELATIVE
    HUMIDITY OBSERVATIONS.

INZ001>003-010>013-019-020-110800-
NORTHWEST INDIANA

CITY           SKY/WX    TMP DP  RH WIND       PRES   REMARKS
GARY /AIRPORT/ LGT SNOW  26  24  91 SE5       30.27F WCI  20
KNOX *+        CLOUDY    25  10  54 SE9       30.28F WCI  15
LA PORTE +     LGT SNOW  23  21  93 SE5       30.29F WCI  17
MICHIGAN CITY+ LGT SNOW  25  23  93 S5        30.29F WCI  19
MONTICELLO +   LGT SNOW  25  20  83 SE6       30.28F WCI  18
RENSSELAER +   LGT SNOW  27  27 100 SE10      30.27F WCI  17
VALPARAISO     LGT SNOW  25  21  85 MISG      30.27F FOG

$$

LMZ046-743>745-110800-
SOUTHERN LAKE MICHIGAN

STATION/POSITION TIME  TEMP    WIND        PRES    WAVE
                       AIR SEA DIR/SP/G            HT
                 (UTC) (F)     (DEG/KT/KT) (MB)    (FT)
BURNS HARBOR     0640   24     170/  9/ 17 1025.7F

$$

INZ004-005-014>016-021>024-110800-
NORTH CENTRAL INDIANA

CITY           SKY/WX    TMP DP  RH WIND       PRES   REMARKS
GOSHEN         LGT SNOW  24  19  81 SE8       30.31F WCI  15
LOGANSPORT +   LGT SNOW  25  23  93 SE9       30.30F WCI  15
PERU/GRISSOM   LGT SNOW  24  23  96 SE10      30.28F FOG     WCI  14
ROCHESTER +    LGT SNOW  28  27  93 SE8       30.30F WCI  20
SOUTH BEND     LGT SNOW  22  20  92 SE8       30.30F FOG     WCI  12
WARSAW +       LGT SNOW  23  19  86 S6        30.31F WCI  16

$$

INZ006>009-017-018-025>027-110800-
NORTHEAST INDIANA

CITY           SKY/WX    TMP DP  RH WIND       PRES   REMARKS
ANGOLA *+      CLOUDY    21  21 100 S5        30.31F WCI  15
AUBURN +       LGT SNOW  25  23  93 CALM      30.34F
FORT WAYNE     LGT SNOW  24  21  88 SE7       30.34F FOG     WCI  16
HUNTINGTON +   LGT SNOW  24  22  95 S5        30.33F WCI  18
KENDALLVILLE + LGT SNOW  23  21  93 S7        30.32F WCI  15

$$

INZ028-029-035-036-043>045-051>053-110800-
WEST CENTRAL INDIANA

CITY           SKY/WX    TMP DP  RH WIND       PRES   REMARKS
CRAWFORDSVL +  CLOUDY    25  22  87 SE10      30.26F WCI  15
GREENCASTLE +  CLOUDY    28  21  74 SE7       30.28F WCI  21
LAFAYETTE      LGT SNOW  25  23  92 SE7       30.27F FOG     WCI  17
TERRE HAUTE    CLOUDY    30  18  60 SE12      30.27F WCI  20

$$

INZ030>032-037>040-046>048-054>057-064-065-110800-
CENTRAL INDIANA

CITY           SKY/WX    TMP DP  RH WIND       PRES   REMARKS
CP ATTERBURY + CLOUDY    30  21  69 E5        30.32F WCI  25
FISHERS *+     CLOUDY    25  25 100 SE5       30.30F WCI  19
FRANKFORT +    FLURRIES  28  25  87 SE12      30.29F WCI  18
GREENWOOD *+   CLOUDY    28  21  75 SE6       30.32F WCI  22
INDIANAPOLIS   CLOUDY    27  21  78 E10       30.28F WCI  17
-EAGLE CREEK   CLOUDY    27  21  78 E7        30.29F WCI  19
KOKOMO +       LGT SNOW  24  23  96 SE10      30.32F FOG     WCI  14
MARION +       LGT SNOW  24  22  93 SE8       30.33F WCI  15
MT COMFORT *+  CLOUDY    25  23  93 SE6       30.32F WCI  18
SHELBYVILLE    CLOUDY    29  20  69 E10       30.30F WCI  20
ZIONSVILLE +   CLOUDY    25  22  88 SE8       30.29F WCI  16

$$

INZ033-034-041-042-049-050-058-059-110800-
EAST CENTRAL INDIANA

CITY           SKY/WX    TMP DP  RH WIND       PRES   REMARKS
MUNCIE         LGT SNOW  26  22  84 SE8       30.33F FOG     WCI  18

$$

INZ060-061-067>069-081>083-085>088-110800-
SOUTHWEST INDIANA

CITY           SKY/WX    TMP DP  RH WIND       PRES   REMARKS
EVANSVILLE     CLOUDY    34  18  52 SE5       30.30F WCI  30
HUNTINGBURG *+ CLOUDY    32  19  59 SE5       30.30F WCI  27
WASHINGTON +   CLOUDY    31  23  71 E6        30.30F WCI  26

$$

INZ062-063-066-070>080-084-089>092-110800-
SOUTH CENTRAL AND SOUTHEAST INDIANA

CITY           SKY/WX    TMP DP  RH WIND       PRES   REMARKS
BLOOMINGTON    CLOUDY    29  17  61 SE10      30.29F WCI  20
MADISON *+     CLOUDY    32  19  59 CALM      30.35F
NORTH VERNON + CLOUDY    30  25  80 E3        30.34F
SEYMOUR +      CLOUDY    32  19  59 E5        30.34F WCI  27

$$





USA.gov is the U.S. government's official web portal to all federal, state and local government web resources and services.